[[{"header":{"parameterUnit":"m.s-1","parameterCategory":1,"la1":30.2992,"la2":30.254,"lo1":-89.0895,"lo2":-89.0443,"dy":0.0025,"dx":0.0025,"nx":19,"ny":19,"refTime":"2026-05-08T09:00:00:Z","depth":0,"parameterNumber":2,"parameterNumberName":"U-component_of_WINDS"},"data":[0,0,0,1.6168,1.6166,1.6092,1.6091,1.6001,1.6,0,0,0,0,0,0,0,0,0,0,0,1.6193,1.6193,1.6168,1.6166,1.6092,1.6091,1.6001,1.6,0,0,0,0,0,0,0,0,0,0,0,1.6193,1.6193,1.6192,1.6166,1.6092,1.6091,1.6001,1.6056,0,0,0,0,0,0,0,0,0,0,1.6127,1.6154,1.6193,1.6192,1.6166,1.6092,1.6091,1.6058,1.6052,1.6037,0,1.6025,0,1.6011,1.5995,1.5994,0,0,0,1.6163,1.6159,1.6136,1.6192,1.6165,1.6092,1.6125,1.6055,1.6048,1.6029,1.6023,1.602,1.601,1.5994,1.5994,1.5917,1.5917,0,0,1.6168,1.6181,1.6141,1.6132,1.6144,1.6127,1.6122,1.6051,1.6045,1.6023,1.6018,1.6008,1.5993,1.5993,1.5917,1.5917,0,0,0,1.6181,1.6184,1.6163,1.6136,1.6122,1.6125,1.6119,1.6048,1.604,1.6017,1.6007,1.5993,1.5992,1.5917,1.5917,1.592,0,0,0,1.6184,1.6192,1.6165,1.6172,1.6123,1.6084,1.6118,1.6045,1.6036,1.6008,1.5993,1.5991,1.5918,1.5917,1.592,1.5918,0,0,0,1.6197,1.6194,1.6184,1.6173,1.6142,1.6085,1.6073,1.6043,1.6031,1.5994,1.5991,1.5918,1.5917,1.5921,1.5919,1.5903,0,0,0,1.6215,1.6186,1.6184,1.6149,1.6143,1.6087,1.6073,1.6031,1.6,1.5992,1.5918,1.5917,1.5921,1.5919,1.5904,1.5892,1.5889,0,0,1.6186,1.6183,1.6161,1.6158,1.6106,1.6098,1.6046,1.6004,1.5988,1.5942,1.5939,1.592,1.5919,1.5903,1.5865,1.5862,0,0,0,1.6157,1.6141,1.6125,1.6096,1.6065,1.6038,1.6002,1.5987,1.5948,1.5967,1.591,1.5908,1.5899,1.5893,1.589,1.5881,1.5915,1.5915,1.5915,1.6135,1.6117,1.608,1.6054,1.6027,1.5992,1.5968,1.5942,1.593,1.5917,1.5903,1.5882,1.5876,1.5874,1.5865,1.5896,1.5896,1.5896,1.5896,1.6091,1.6067,1.6055,1.6015,1.5996,1.5962,1.5928,1.5922,1.5887,1.589,1.5881,1.5886,1.5871,1.5863,1.5896,1.5896,1.5896,1.5896,1.5896,1.6075,1.606,1.6044,1.6003,1.5973,1.5947,1.5916,1.59,1.5884,1.5875,1.5859,1.5859,1.5857,1.5869,1.5868,1.5868,1.5868,1.5868,1.5868,1.6064,1.6045,1.6021,1.5987,1.5968,1.5941,1.5908,1.5888,1.5863,1.5854,1.5853,1.5844,1.5873,1.5882,1.5867,1.5867,1.5867,1.5867,1.5868,1.6027,1.6033,1.5996,1.5977,1.5937,1.591,1.5891,1.5853,1.5835,1.582,1.5813,1.5838,1.5833,1.5835,1.5841,1.5817,1.5817,1.5817,1.5817,1.6013,1.601,1.5969,1.5941,1.5911,1.589,1.585,1.5824,1.5799,1.5787,1.5788,1.5795,1.5798,1.5791,1.5794,1.58,1.5766,1.5766,1.5765,1.5989,1.5983,1.5951,1.5927,1.5896,1.5869,1.583,1.5798,1.5771,1.5763,1.5777,1.5779,1.5791,1.5795,1.5787,1.5791,1.5802,0,0]},{"header":{"parameterUnit":"m.s-1","parameterCategory":1,"la1":30.2992,"la2":30.254,"lo1":-89.0895,"lo2":-89.0443,"dy":0.0025,"dx":0.0025,"nx":19,"ny":19,"refTime":"2026-05-08T09:00:00:Z","depth":0,"parameterNumber":3,"parameterNumberName":"V-component_of_WINDS"},"data":[0,0,0,2.1468,2.1471,2.1639,2.164,2.1836,2.1837,0,0,0,0,0,0,0,0,0,0,0,2.1406,2.1407,2.1468,2.1472,2.1639,2.164,2.1835,2.1837,0,0,0,0,0,0,0,0,0,0,0,2.1405,2.1406,2.1407,2.1472,2.1639,2.164,2.1835,2.1716,0,0,0,0,0,0,0,0,0,0,2.1556,2.1486,2.1406,2.1408,2.1473,2.1639,2.164,2.171,2.1723,2.1751,0,2.1772,0,2.1808,2.1849,2.185,0,0,0,2.1481,2.1475,2.1531,2.1408,2.1474,2.1638,2.1566,2.1718,2.1732,2.1768,2.1775,2.1783,2.1811,2.185,2.1851,2.198,2.198,0,0,2.1472,2.1429,2.1521,2.154,2.1512,2.1561,2.1571,2.1727,2.1732,2.1776,2.1788,2.1814,2.1851,2.1853,2.198,2.198,0,0,0,2.1439,2.1422,2.1476,2.1532,2.1563,2.1565,2.1578,2.1725,2.1746,2.179,2.1816,2.1852,2.1855,2.198,2.198,2.1945,0,0,0,2.1434,2.1403,2.1471,2.1447,2.156,2.1646,2.1572,2.1735,2.1754,2.1815,2.1852,2.1856,2.198,2.198,2.1946,2.1936,0,0,0,2.1399,2.1399,2.1419,2.1444,2.1514,2.1644,2.1674,2.174,2.1769,2.185,2.1857,2.198,2.198,2.1947,2.1937,2.1958,0,0,0,2.135,2.1386,2.1418,2.1469,2.1513,2.1621,2.1674,2.1757,2.1822,2.1853,2.198,2.198,2.1947,2.1938,2.1958,2.1968,2.1967,0,0,2.1372,2.1387,2.1421,2.1454,2.1545,2.1599,2.1687,2.1787,2.1834,2.1929,2.1933,2.1946,2.1938,2.1958,2.198,2.1979,0,0,0,2.1413,2.1437,2.147,2.153,2.1606,2.1672,2.1763,2.1801,2.1883,2.1874,2.196,2.1956,2.197,2.1977,2.1976,2.1991,2.1981,2.1981,2.1981,2.1384,2.1441,2.1501,2.1578,2.1635,2.1729,2.1781,2.1848,2.189,2.191,2.1938,2.1944,2.195,2.195,2.1965,2.1948,2.1947,2.1947,2.1947,2.1421,2.1464,2.1519,2.1596,2.1657,2.1723,2.1815,2.1843,2.1914,2.1927,2.1943,2.1952,2.1948,2.1964,2.1945,2.1946,2.1946,2.1946,2.1946,2.1408,2.1439,2.1483,2.1575,2.164,2.1718,2.1784,2.1838,2.1889,2.1904,2.194,2.1941,2.1949,2.1917,2.1917,2.1917,2.1917,2.1917,2.1918,2.1377,2.1429,2.1477,2.1561,2.1607,2.1673,2.1768,2.1815,2.1881,2.1915,2.1916,2.1956,2.1936,2.193,2.1918,2.1918,2.1918,2.1918,2.1918,2.1395,2.14,2.1473,2.1519,2.1623,2.1684,2.1752,2.1843,2.1889,2.192,2.1958,2.1934,2.1954,2.1955,2.195,2.1945,2.1945,2.1945,2.1945,2.1384,2.1399,2.1487,2.1556,2.1631,2.1699,2.1783,2.1857,2.1936,2.1968,2.1977,2.1975,2.1974,2.1995,2.1995,2.1992,2.1997,2.1997,2.1997,2.1398,2.1423,2.1483,2.1558,2.1644,2.1717,2.1797,2.1876,2.1966,2.2,2.1995,2.1993,2.1991,2.1988,2.2022,2.202,2.2015,0,0]}]]